Location: ??
(35.5052°N, 139.7262°E)
Time: 18:07:54
(UTC+00:00)

OAO 1 - Pass Details

Date: 26 October 2021
Orbit: 773 x 784 km, 35.0° (Epoch: 28 November)

Event Time Altitude Azimuth Distance (km) Brightness Sun altitude
Rises 10:27:31 0° 276° (W) 3,251 8.9 -32.1°
Reaches altitude 10° 10:30:00 10° 275° (W) 2,324 7.8 -32.6°
Enters shadow 10:33:36 42° 268° (W) 1,096 5.6 -33.3°
